,,,PA_Meas_PMT16A,,PR_Meas_QMR101_102,,RH_Meas_QMH101,,SR_Meas_QMS101,,TA_Meas_QMH101,,GenWind,,GenWind,
date,time,status,PA,status,PR,status,RH,status,SR,status,TA,status,DirAvg,status,SpdAvg,
2010-03-07, 00:00:04,VALID,1004.3,VALID,0,VALID,88.5723,VALID,0,VALID,23.6232,VALID,151,VALID,1.11484,
2010-03-07, 00:01:04,VALID,1004.3,VALID,0,VALID,88.2976,VALID,0,VALID,23.7012,VALID,151,VALID,0.771094,
2010-03-07, 00:02:04,VALID,1004.28,VALID,0,VALID,87.9619,VALID,0,VALID,23.7793,VALID,160,VALID,1.01445,
2010-03-07, 00:03:04,VALID,1004.26,VALID,0,VALID,87.2829,VALID,0,VALID,23.8573,VALID,156,VALID,0.996094,
2010-03-07, 00:04:04,VALID,1004.25,VALID,0,VALID,87.0845,VALID,0,VALID,23.8963,VALID,156,VALID,1.01094,
2010-03-07, 00:05:04,VALID,1004.25,VALID,0,VALID,86.9548,VALID,0,VALID,23.8963,VALID,156,VALID,0.887891,
2010-03-07, 00:06:04,VALID,1004.25,VALID,0,VALID,87.1455,VALID,0,VALID,23.8963,VALID,157,VALID,0.814844,
2010-03-07, 00:07:04,VALID,1004.2,VALID,0,VALID,87.2676,VALID,0,VALID,23.8573,VALID,158,VALID,0.774219,
2010-03-07, 00:08:04,VALID,1004.2,VALID,0,VALID,87.527,VALID,0,VALID,23.8573,VALID,158,VALID,0.823438,
2010-03-07, 00:09:04,VALID,1004.16,VALID,0,VALID,87.6796,VALID,0,VALID,23.8573,VALID,158,VALID,0.81875,
2010-03-07, 00:10:04,VALID,1004.13,VALID,0,VALID,87.588,VALID,0,VALID,23.8573,VALID,163,VALID,0.784375,
2010-03-07, 00:11:04,VALID,1004.1,VALID,0,VALID,87.6643,VALID,0,VALID,23.8768,VALID,163,VALID,0.707812,
2010-03-07, 00:12:04,VALID,1004.06,VALID,0,VALID,87.4812,VALID,0,VALID,23.8768,VALID,163,VALID,0.48125,
2010-03-07, 00:13:04,VALID,1004.09,VALID,0,VALID,87.4583,VALID,0,VALID,23.8768,VALID,163,VALID,0.40625,
2010-03-07, 00:14:04,VALID,1004.06,VALID,0,VALID,87.2905,VALID,0,VALID,23.8768,VALID,163,VALID,0,
2010-03-07, 00:15:04,VALID,1004.05,VALID,0,VALID,87.0311,VALID,0,VALID,23.8573,VALID,163,VALID,0,
2010-03-07, 00:16:04,VALID,1004.04,VALID,0,VALID,87.2981,VALID,0,VALID,23.8183,VALID,163,VALID,0.003125,
2010-03-07, 00:17:04,VALID,1003.98,VALID,0,VALID,87.4278,VALID,0,VALID,23.7775,VALID,163,VALID,0,
2010-03-07, 00:18:04,VALID,1004,VALID,0,VALID,87.4812,VALID,0,VALID,23.7793,VALID,163,VALID,0.000390625,
2010-03-07, 00:19:04,VALID,1003.96,VALID,0,VALID,87.0234,VALID,0,VALID,23.7012,VALID,51,VALID,0.545313,
2010-03-07, 00:20:04,VALID,1003.93,VALID,0,VALID,87.6949,VALID,0,VALID,23.6427,VALID,41,VALID,0.578516,
2010-03-07, 00:21:04,VALID,1003.91,VALID,0,VALID,88.145,VALID,0,VALID,23.5823,VALID,41,VALID,0.622656,
2010-03-07, 00:22:04,VALID,1003.87,VALID,0,VALID,88.4502,VALID,0,VALID,23.5841,VALID,41,VALID,0.579297,
2010-03-07, 00:23:04,VALID,1003.88,VALID,0,VALID,88.5799,VALID,0,VALID,23.5841,VALID,41,VALID,0.621094,
2010-03-07, 00:24:04,VALID,1003.84,VALID,0,VALID,88.7325,VALID,0.112286,VALID,23.5823,VALID,41,VALID,0.733203,
2010-03-07, 00:25:04,VALID,1003.81,VALID,0,VALID,88.6104,VALID,0,VALID,23.6036,VALID,40,VALID,0.816797,
2010-03-07, 00:26:04,VALID,1003.8,VALID,0,VALID,88.0077,VALID,0,VALID,23.5256,VALID,18,VALID,1.44375,
2010-03-07, 00:27:04,VALID,1003.75,VALID,0,VALID,88.145,VALID,0,VALID,23.428,VALID,17,VALID,1.12383,
2010-03-07, 00:28:04,VALID,1003.77,VALID,0,VALID,88.5646,VALID,0,VALID,23.389,VALID,16,VALID,0.955859,
2010-03-07, 00:29:04,VALID,1003.73,VALID,0,VALID,88.6714,VALID,0,VALID,23.3305,VALID,16,VALID,0.829687,
2010-03-07, 00:30:04,VALID,1003.74,VALID,0,VALID,89.0377,VALID,0,VALID,23.2524,VALID,16,VALID,0.792188,
2010-03-07, 00:31:04,VALID,1003.71,VALID,0,VALID,89.2055,VALID,0,VALID,23.2329,VALID,18,VALID,0.858203,
2010-03-07, 00:32:04,VALID,1003.69,VALID,0,VALID,89.2513,VALID,0,VALID,23.1921,VALID,22,VALID,0.8625,
2010-03-07, 00:33:04,VALID,1003.65,VALID,0,VALID,89.2894,VALID,0,VALID,23.1336,VALID,26,VALID,1.01016,
2010-03-07, 00:34:04,VALID,1003.65,VALID,0,VALID,89.4878,VALID,0,VALID,23.0946,VALID,37,VALID,1.30547,
2010-03-07, 00:35:04,VALID,1003.61,VALID,0,VALID,89.6251,VALID,0,VALID,23.0964,VALID,41,VALID,1.3543,
2010-03-07, 00:36:04,VALID,1003.61,VALID,0,VALID,89.7701,VALID,0,VALID,23.0769,VALID,41,VALID,1.46719,
2010-03-07, 00:37:04,VALID,1003.56,VALID,0,VALID,89.9609,VALID,0,VALID,23.0556,VALID,44,VALID,1.4375,
2010-03-07, 00:38:04,VALID,1003.55,VALID,0,VALID,90.1745,VALID,0,VALID,23.0769,VALID,44,VALID,1.33281,
2010-03-07, 00:39:04,VALID,1003.56,VALID,0,VALID,90.2813,VALID,0,VALID,23.0769,VALID,42,VALID,1.05352,
2010-03-07, 00:40:04,VALID,1003.5,VALID,0,VALID,90.4873,VALID,0,VALID,23.0769,VALID,42,VALID,0.948438,
2010-03-07, 00:41:04,VALID,1003.48,VALID,0,VALID,90.5178,VALID,0,VALID,23.0573,VALID,38,VALID,0.982813,
2010-03-07, 00:42:04,VALID,1003.46,VALID,0,VALID,90.8535,VALID,0,VALID,23.0573,VALID,33,VALID,1.34727,
2010-03-07, 00:43:04,VALID,1003.47,VALID,0,VALID,90.884,VALID,0,VALID,23.0769,VALID,36,VALID,1.19062,
2010-03-07, 00:44:04,VALID,1003.42,VALID,0,VALID,91.1053,VALID,0,VALID,23.0361,VALID,32,VALID,1.37305,
2010-03-07, 00:45:04,VALID,1003.39,VALID,0,VALID,91.029,VALID,0,VALID,23.0166,VALID,34,VALID,1.08672,
2010-03-07, 00:46:04,VALID,1003.38,VALID,0,VALID,91.0443,VALID,0,VALID,23.0378,VALID,35,VALID,1.03555,
2010-03-07, 00:47:04,VALID,1003.38,VALID,0,VALID,91.1282,VALID,0,VALID,23.0378,VALID,41,VALID,1.09336,
2010-03-07, 00:48:04,VALID,1003.34,VALID,0,VALID,91.0824,VALID,0,VALID,23.0378,VALID,53,VALID,0.928516,
2010-03-07, 00:49:04,VALID,1003.33,VALID,0,VALID,91.296,VALID,0,VALID,23.0378,VALID,53,VALID,0.874609,
2010-03-07, 00:50:04,VALID,1003.31,VALID,0,VALID,91.502,VALID,0,VALID,23.0573,VALID,55,VALID,0.999219,
2010-03-07, 00:51:04,VALID,1003.29,VALID,0,VALID,91.3952,VALID,0,VALID,23.0769,VALID,59,VALID,0.612109,
2010-03-07, 00:52:04,VALID,1003.26,VALID,0,VALID,91.3571,VALID,0,VALID,23.0573,VALID,65,VALID,0.623047,
2010-03-07, 00:53:04,VALID,1003.24,VALID,0,VALID,91.4105,VALID,0,VALID,23.0361,VALID,65,VALID,0.680078,
2010-03-07, 00:54:04,VALID,1003.2,VALID,0,VALID,91.5173,VALID,0,VALID,23.0378,VALID,68,VALID,0.859766,
2010-03-07, 00:55:04,VALID,1003.17,VALID,0,VALID,91.4791,VALID,0,VALID,23.0183,VALID,68,VALID,0.624609,
2010-03-07, 00:56:04,VALID,1003.17,VALID,0,VALID,91.4257,VALID,0,VALID,22.9988,VALID,69,VALID,0.585938,
2010-03-07, 00:57:04,VALID,1003.15,VALID,0,VALID,91.3037,VALID,0,VALID,22.9793,VALID,74,VALID,0.589844,
2010-03-07, 00:58:04,VALID,1003.14,VALID,0,VALID,91.3494,VALID,0,VALID,22.9403,VALID,75,VALID,0.485156,
2010-03-07, 00:59:04,VALID,1003.14,VALID,0,VALID,91.3494,VALID,0,VALID,22.9013,VALID,75,VALID,0.302344,
2010-03-07, 01:00:04,VALID,1003.16,VALID,0,VALID,91.2579,VALID,0,VALID,22.841,VALID,75,VALID,0.0238281,
2010-03-07, 01:01:04,VALID,1003.16,VALID,0,VALID,91.3037,VALID,0,VALID,22.8427,VALID,75,VALID,0,
2010-03-07, 01:02:04,VALID,1003.2,VALID,0,VALID,91.4944,VALID,0,VALID,22.8427,VALID,75,VALID,0.207031,
2010-03-07, 01:03:04,VALID,1003.2,VALID,0,VALID,91.5478,VALID,0,VALID,22.8232,VALID,75,VALID,0,
2010-03-07, 01:04:04,VALID,1003.15,VALID,0,VALID,91.6165,VALID,0,VALID,22.841,VALID,44,VALID,0.14375,
2010-03-07, 01:05:04,VALID,1003.15,VALID,0,VALID,91.7309,VALID,0,VALID,22.8818,VALID,350,VALID,0.317187,
2010-03-07, 01:06:04,VALID,1003.13,VALID,0,VALID,91.7691,VALID,0,VALID,22.9013,VALID,350,VALID,0.160156,
2010-03-07, 01:07:04,VALID,1003.08,VALID,0,VALID,91.8301,VALID,0,VALID,22.8995,VALID,350,VALID,0.122266,
2010-03-07, 01:08:04,VALID,1003.08,VALID,0,VALID,91.792,VALID,0,VALID,22.9403,VALID,350,VALID,0,
2010-03-07, 01:09:04,VALID,1003.03,VALID,0,VALID,91.8606,VALID,0,VALID,22.9598,VALID,350,VALID,0.00273437,
2010-03-07, 01:10:04,VALID,1003.03,VALID,0,VALID,91.6928,VALID,0,VALID,22.9598,VALID,350,VALID,0.278125,
2010-03-07, 01:11:04,VALID,1002.99,VALID,0,VALID,92.0285,VALID,0,VALID,22.9988,VALID,350,VALID,0.173828,
2010-03-07, 01:12:04,VALID,1002.97,VALID,0,VALID,91.7462,VALID,0,VALID,22.9793,VALID,350,VALID,0.0527344,
2010-03-07, 01:13:04,VALID,1002.96,VALID,0,VALID,91.8072,VALID,0,VALID,22.9598,VALID,350,VALID,0,
2010-03-07, 01:14:04,VALID,1002.96,VALID,0,VALID,91.7462,VALID,0,VALID,22.9598,VALID,350,VALID,0,
2010-03-07, 01:15:04,VALID,1002.97,VALID,0,VALID,91.6241,VALID,0,VALID,22.9403,VALID,350,VALID,0,
2010-03-07, 01:16:04,VALID,1002.95,VALID,0,VALID,91.6165,VALID,0,VALID,22.9013,VALID,350,VALID,0,
2010-03-07, 01:17:04,VALID,1002.94,VALID,0,VALID,91.7385,VALID,0,VALID,22.8818,VALID,350,VALID,0.167578,
2010-03-07, 01:18:04,VALID,1002.93,VALID,0,VALID,91.8148,VALID,0,VALID,22.8818,VALID,350,VALID,0,
2010-03-07, 01:19:04,VALID,1002.93,VALID,0,VALID,91.7996,VALID,0,VALID,22.8623,VALID,350,VALID,0,
2010-03-07, 01:20:04,VALID,1002.93,VALID,0,VALID,91.8683,VALID,0,VALID,22.8623,VALID,350,VALID,0,
2010-03-07, 01:21:04,VALID,1002.92,VALID,0,VALID,92.0132,VALID,0,VALID,22.8818,VALID,350,VALID,0,
2010-03-07, 01:22:04,VALID,1002.93,VALID,0,VALID,92.0132,VALID,0,VALID,22.8818,VALID,350,VALID,0,
2010-03-07, 01:23:04,VALID,1002.92,VALID,0,VALID,91.9751,VALID,0,VALID,22.8623,VALID,350,VALID,0,
2010-03-07, 01:24:04,VALID,1002.89,VALID,0,VALID,92.0056,VALID,0,VALID,22.8818,VALID,350,VALID,0,
2010-03-07, 01:25:04,VALID,1002.87,VALID,0,VALID,92.0361,VALID,0,VALID,22.8623,VALID,350,VALID,0,
2010-03-07, 01:26:04,VALID,1002.88,VALID,0,VALID,92.0819,VALID,0,VALID,22.8818,VALID,350,VALID,0,
2010-03-07, 01:27:04,VALID,1002.87,VALID,0,VALID,92.0514,VALID,0,VALID,22.8623,VALID,350,VALID,0,
2010-03-07, 01:28:04,VALID,1002.86,VALID,0,VALID,92.0209,VALID,0,VALID,22.8427,VALID,350,VALID,0,
2010-03-07, 01:29:04,VALID,1002.84,VALID,0,VALID,92.059,VALID,0,VALID,22.8427,VALID,350,VALID,0,
2010-03-07, 01:30:04,VALID,1002.85,VALID,0,VALID,92.1124,VALID,0,VALID,22.8427,VALID,350,VALID,0,
2010-03-07, 01:31:04,VALID,1002.83,VALID,0,VALID,92.1277,VALID,0,VALID,22.8427,VALID,350,VALID,0,
2010-03-07, 01:32:04,VALID,1002.82,VALID,0,VALID,92.1734,VALID,0,VALID,22.8215,VALID,350,VALID,0,
2010-03-07, 01:33:04,VALID,1002.83,VALID,0,VALID,91.9369,VALID,0,VALID,22.8232,VALID,350,VALID,0,
2010-03-07, 01:34:04,VALID,1002.82,VALID,0,VALID,92.0132,VALID,0,VALID,22.7647,VALID,350,VALID,0,
2010-03-07, 01:35:04,VALID,1002.81,VALID,0,VALID,92.3642,VALID,0,VALID,22.8037,VALID,3,VALID,0,
2010-03-07, 01:36:04,VALID,1002.79,VALID,0,VALID,92.4252,VALID,0,VALID,22.8427,VALID,86,VALID,0,
2010-03-07, 01:37:04,VALID,1002.79,VALID,0,VALID,92.3337,VALID,0,VALID,22.8427,VALID,87,VALID,0,
2010-03-07, 01:38:04,VALID,1002.79,VALID,0,VALID,92.6312,VALID,0,VALID,22.9013,VALID,87,VALID,0,
2010-03-07, 01:39:04,VALID,1002.78,VALID,0,VALID,92.8067,VALID,0,VALID,22.9793,VALID,87,VALID,0,
2010-03-07, 01:40:04,VALID,1002.82,VALID,0,VALID,92.7762,VALID,0,VALID,23.0183,VALID,87,VALID,0,
2010-03-07, 01:41:04,VALID,1002.79,VALID,0,VALID,92.7457,VALID,0,VALID,23.0573,VALID,87,VALID,0,
2010-03-07, 01:42:04,VALID,1002.77,VALID,0,VALID,92.738,VALID,0,VALID,23.0769,VALID,87,VALID,0,
2010-03-07, 01:43:04,VALID,1002.76,VALID,0,VALID,92.6846,VALID,0,VALID,23.0964,VALID,87,VALID,0,
2010-03-07, 01:44:04,VALID,1002.76,VALID,0,VALID,92.616,VALID,0,VALID,23.1159,VALID,87,VALID,0,
2010-03-07, 01:45:04,VALID,1002.74,VALID,0,VALID,92.6388,VALID,0,VALID,23.1159,VALID,95,VALID,0,
2010-03-07, 01:46:04,VALID,1002.75,VALID,0,VALID,92.6846,VALID,0,VALID,23.1531,VALID,105,VALID,0,
2010-03-07, 01:47:04,VALID,1002.67,VALID,0,VALID,92.6465,VALID,0,VALID,23.1744,VALID,105,VALID,0,
2010-03-07, 01:48:04,VALID,1002.67,VALID,0,VALID,92.5854,VALID,0,VALID,23.1939,VALID,105,VALID,0,
2010-03-07, 01:49:04,VALID,1002.67,VALID,0,VALID,92.4786,VALID,0,VALID,23.1939,VALID,105,VALID,0,
2010-03-07, 01:50:04,VALID,1002.65,VALID,0,VALID,92.4023,VALID,0,VALID,23.1744,VALID,105,VALID,0,
2010-03-07, 01:51:04,VALID,1002.65,VALID,0,VALID,92.2268,VALID,0,VALID,23.1159,VALID,107,VALID,0,
2010-03-07, 01:52:04,VALID,1002.63,VALID,0,VALID,92.1048,VALID,0,VALID,23.0556,VALID,123,VALID,0,
2010-03-07, 01:53:04,VALID,1002.62,VALID,0,VALID,91.9903,VALID,0,VALID,23.0378,VALID,123,VALID,0,
2010-03-07, 01:54:04,VALID,1002.6,VALID,0,VALID,91.914,VALID,0,VALID,22.9988,VALID,123,VALID,0,
2010-03-07, 01:55:04,VALID,1002.55,VALID,0,VALID,91.998,VALID,0,VALID,22.9581,VALID,123,VALID,0,
2010-03-07, 01:56:04,VALID,1002.56,VALID,0,VALID,91.9674,VALID,0,VALID,22.9793,VALID,128,VALID,0,
2010-03-07, 01:57:04,VALID,1002.55,VALID,0,VALID,91.9598,VALID,0,VALID,22.9988,VALID,128,VALID,0,
2010-03-07, 01:58:04,VALID,1002.54,VALID,0,VALID,91.8988,VALID,0,VALID,22.9988,VALID,128,VALID,0,
2010-03-07, 01:59:04,VALID,1002.51,VALID,0,VALID,91.8759,VALID,0,VALID,23.0183,VALID,129,VALID,0.636719,
2010-03-07, 02:00:04,VALID,1002.49,VALID,0,VALID,91.6012,VALID,0,VALID,22.9988,VALID,133,VALID,0.522656,
2010-03-07, 02:01:04,VALID,1002.48,VALID,0,VALID,91.502,VALID,0,VALID,22.9403,VALID,133,VALID,0.279297,
2010-03-07, 02:02:04,VALID,1002.49,VALID,0,VALID,91.5097,VALID,0,VALID,22.9403,VALID,133,VALID,0,
2010-03-07, 02:03:04,VALID,1002.49,VALID,0,VALID,91.3647,VALID,0,VALID,22.9013,VALID,133,VALID,0,
2010-03-07, 02:04:04,VALID,1002.49,VALID,0,VALID,91.2808,VALID,0,VALID,22.8623,VALID,133,VALID,0,
2010-03-07, 02:05:04,VALID,1002.48,VALID,0,VALID,91.3037,VALID,0,VALID,22.8037,VALID,133,VALID,0,
2010-03-07, 02:06:04,VALID,1002.5,VALID,0,VALID,91.4257,VALID,0.112286,VALID,22.7825,VALID,133,VALID,0,
2010-03-07, 02:07:04,VALID,1002.49,VALID,0,VALID,91.4868,VALID,0,VALID,22.7842,VALID,133,VALID,0,
2010-03-07, 02:08:04,VALID,1002.48,VALID,0,VALID,91.7614,VALID,0,VALID,22.8037,VALID,75,VALID,0.578125,
2010-03-07, 02:09:04,VALID,1002.52,VALID,0,VALID,91.9445,VALID,0,VALID,22.802,VALID,75,VALID,0.840625,
2010-03-07, 02:10:04,VALID,1002.5,VALID,0,VALID,92.1048,VALID,0.112286,VALID,22.9013,VALID,75,VALID,0.836719,
2010-03-07, 02:11:04,VALID,1002.49,VALID,0,VALID,91.9217,VALID,0,VALID,22.9403,VALID,69,VALID,0.816016,
2010-03-07, 02:12:04,VALID,1002.46,VALID,0,VALID,91.914,VALID,0,VALID,22.9598,VALID,58,VALID,0.801953,
2010-03-07, 02:13:04,VALID,1002.42,VALID,0,VALID,91.7996,VALID,0,VALID,22.9793,VALID,43,VALID,0.766016,
2010-03-07, 02:14:04,VALID,1002.38,VALID,0,VALID,91.4791,VALID,0,VALID,22.9403,VALID,38,VALID,0.662891,
2010-03-07, 02:15:04,VALID,1002.37,VALID,0,VALID,91.4181,VALID,0.112286,VALID,22.8605,VALID,24,VALID,0.769922,
2010-03-07, 02:16:04,VALID,1002.33,VALID,0,VALID,90.8459,VALID,0,VALID,22.7647,VALID,10,VALID,0.942578,
2010-03-07, 02:17:04,VALID,1002.36,VALID,0,VALID,91.3113,VALID,0,VALID,22.7062,VALID,10,VALID,0.651563,
2010-03-07, 02:18:04,VALID,1002.34,VALID,0,VALID,91.4639,VALID,0,VALID,22.7062,VALID,10,VALID,0.516797,
2010-03-07, 02:19:04,VALID,1002.32,VALID,0,VALID,91.5631,VALID,0,VALID,22.6672,VALID,10,VALID,0.491016,
2010-03-07, 02:20:04,VALID,1002.34,VALID,0,VALID,91.4181,VALID,0,VALID,22.6282,VALID,10,VALID,0.542578,
2010-03-07, 02:21:04,VALID,1002.33,VALID,0,VALID,91.7309,VALID,0,VALID,22.6069,VALID,10,VALID,0.453516,
2010-03-07, 02:22:04,VALID,1002.33,VALID,0,VALID,91.853,VALID,0,VALID,22.6087,VALID,10,VALID,0.331641,
2010-03-07, 02:23:04,VALID,1002.33,VALID,0,VALID,91.8606,VALID,0,VALID,22.6282,VALID,10,VALID,0.0804688,
2010-03-07, 02:24:04,VALID,1002.35,VALID,0,VALID,91.9369,VALID,0.112286,VALID,22.6282,VALID,10,VALID,0,
2010-03-07, 02:25:04,VALID,1002.36,VALID,0,VALID,92.0361,VALID,0,VALID,22.6264,VALID,10,VALID,0,
2010-03-07, 02:26:04,VALID,1002.35,VALID,0,VALID,92.0819,VALID,0,VALID,22.6672,VALID,10,VALID,0,
2010-03-07, 02:27:04,VALID,1002.36,VALID,0,VALID,92.1506,VALID,0,VALID,22.6867,VALID,10,VALID,0,
2010-03-07, 02:28:04,VALID,1002.39,VALID,0,VALID,92.2345,VALID,0,VALID,22.6867,VALID,10,VALID,0,
2010-03-07, 02:29:04,VALID,1002.41,VALID,0,VALID,92.2192,VALID,0,VALID,22.7062,VALID,10,VALID,0,
2010-03-07, 02:30:04,VALID,1002.39,VALID,0,VALID,92.1734,VALID,0,VALID,22.6867,VALID,10,VALID,0,
2010-03-07, 02:31:04,VALID,1002.39,VALID,0,VALID,92.1124,VALID,0,VALID,22.6672,VALID,10,VALID,0,
2010-03-07, 02:32:04,VALID,1002.41,VALID,0,VALID,92.0666,VALID,0,VALID,22.6282,VALID,10,VALID,0,
2010-03-07, 02:33:04,VALID,1002.39,VALID,0,VALID,92.0666,VALID,0,VALID,22.6087,VALID,10,VALID,0,
2010-03-07, 02:34:04,VALID,1002.39,VALID,0,VALID,92.0666,VALID,0,VALID,22.5696,VALID,10,VALID,0,
2010-03-07, 02:35:04,VALID,1002.37,VALID,0,VALID,92.2726,VALID,0,VALID,22.5501,VALID,10,VALID,0,
2010-03-07, 02:36:04,VALID,1002.36,VALID,0,VALID,92.3566,VALID,0,VALID,22.5696,VALID,10,VALID,0,
2010-03-07, 02:37:04,VALID,1002.35,VALID,0,VALID,92.4023,VALID,0,VALID,22.5696,VALID,10,VALID,0,
2010-03-07, 02:38:04,VALID,1002.34,VALID,0,VALID,92.3947,VALID,0,VALID,22.5892,VALID,10,VALID,0,
2010-03-07, 02:39:04,VALID,1002.34,VALID,0,VALID,92.3566,VALID,0,VALID,22.5696,VALID,10,VALID,0,
2010-03-07, 02:40:04,VALID,1002.34,VALID,0,VALID,92.41,VALID,0,VALID,22.5696,VALID,10,VALID,0,
2010-03-07, 02:41:04,VALID,1002.33,VALID,0,VALID,92.4634,VALID,0,VALID,22.5696,VALID,10,VALID,0,
2010-03-07, 02:42:04,VALID,1002.36,VALID,0,VALID,92.471,VALID,0,VALID,22.5484,VALID,10,VALID,0,
2010-03-07, 02:43:04,VALID,1002.36,VALID,0,VALID,92.532,VALID,0.112286,VALID,22.5679,VALID,10,VALID,0,
2010-03-07, 02:44:04,VALID,1002.41,VALID,0,VALID,92.5473,VALID,0,VALID,22.5892,VALID,10,VALID,0,
2010-03-07, 02:45:04,VALID,1002.4,VALID,0,VALID,92.5778,VALID,0,VALID,22.6087,VALID,10,VALID,0,
2010-03-07, 02:46:04,VALID,1002.4,VALID,0,VALID,92.6236,VALID,0,VALID,22.6282,VALID,10,VALID,0,
2010-03-07, 02:47:04,VALID,1002.38,VALID,0,VALID,92.6312,VALID,0,VALID,22.6282,VALID,10,VALID,0,
2010-03-07, 02:48:04,VALID,1002.4,VALID,0,VALID,92.6312,VALID,0,VALID,22.6069,VALID,10,VALID,0,
2010-03-07, 02:49:04,VALID,1002.37,VALID,0,VALID,92.6465,VALID,0,VALID,22.6282,VALID,10,VALID,0,
2010-03-07, 02:50:04,VALID,1002.4,VALID,0,VALID,92.6617,VALID,0,VALID,22.6282,VALID,10,VALID,0,
2010-03-07, 02:51:04,VALID,1002.39,VALID,0,VALID,92.5931,VALID,0,VALID,22.6087,VALID,10,VALID,0,
2010-03-07, 02:52:04,VALID,1002.36,VALID,0,VALID,92.6617,VALID,0,VALID,22.6087,VALID,10,VALID,0,
2010-03-07, 02:53:04,VALID,1002.36,VALID,0,VALID,92.6923,VALID,0,VALID,22.6087,VALID,10,VALID,0,
2010-03-07, 02:54:04,VALID,1002.38,VALID,0,VALID,92.8143,VALID,0,VALID,22.6282,VALID,10,VALID,0,
2010-03-07, 02:55:04,VALID,1002.36,VALID,0,VALID,92.944,VALID,0,VALID,22.6867,VALID,10,VALID,0,
2010-03-07, 02:56:04,VALID,1002.36,VALID,0,VALID,93.0432,VALID,0,VALID,22.7045,VALID,80,VALID,0.678125,
2010-03-07, 02:57:04,VALID,1002.32,VALID,0,VALID,93.0051,VALID,0,VALID,22.7647,VALID,90,VALID,0.481641,
2010-03-07, 02:58:04,VALID,1002.32,VALID,0,VALID,92.9517,VALID,0,VALID,22.8037,VALID,90,VALID,0.537891,
2010-03-07, 02:59:04,VALID,1002.31,VALID,0,VALID,92.8143,VALID,0,VALID,22.7842,VALID,90,VALID,0.569141,
2010-03-07, 03:00:04,VALID,1002.31,VALID,0,VALID,92.8525,VALID,0,VALID,22.7842,VALID,90,VALID,0.701172,
2010-03-07, 03:01:04,VALID,1002.31,VALID,0,VALID,92.7151,VALID,0,VALID,22.7842,VALID,90,VALID,0.867969,
2010-03-07, 03:02:04,VALID,1002.28,VALID,0,VALID,92.7533,VALID,0,VALID,22.8037,VALID,90,VALID,0.598828,
2010-03-07, 03:03:04,VALID,1002.29,VALID,0,VALID,92.4405,VALID,0,VALID,22.7842,VALID,90,VALID,0.562109,
2010-03-07, 03:04:04,VALID,1002.3,VALID,0,VALID,92.0132,VALID,0,VALID,22.646,VALID,83,VALID,0.346875,
2010-03-07, 03:05:04,VALID,1002.27,VALID,0,VALID,91.6851,VALID,0,VALID,22.4899,VALID,54,VALID,0,
2010-03-07, 03:06:04,VALID,1002.28,VALID,0,VALID,92.0132,VALID,0,VALID,22.4119,VALID,51,VALID,0,
2010-03-07, 03:07:04,VALID,1002.32,VALID,0,VALID,92.0361,VALID,0,VALID,22.3941,VALID,51,VALID,0,
2010-03-07, 03:08:04,VALID,1002.32,VALID,0,VALID,92.2879,VALID,0.112286,VALID,22.3746,VALID,116,VALID,0.732422,
2010-03-07, 03:09:04,VALID,1002.32,VALID,0,VALID,92.2421,VALID,0,VALID,22.3551,VALID,122,VALID,0.993359,
2010-03-07, 03:10:04,VALID,1002.31,VALID,0,VALID,92.4176,VALID,0,VALID,22.3551,VALID,122,VALID,0.626172,
2010-03-07, 03:11:04,VALID,1002.3,VALID,0,VALID,92.265,VALID,0,VALID,22.3144,VALID,122,VALID,0.469141,
2010-03-07, 03:12:04,VALID,1002.31,VALID,0,VALID,92.3184,VALID,0,VALID,22.3161,VALID,122,VALID,0.0449219,
2010-03-07, 03:13:04,VALID,1002.34,VALID,0,VALID,92.2726,VALID,0,VALID,22.2771,VALID,122,VALID,0,
2010-03-07, 03:14:04,VALID,1002.32,VALID,0,VALID,92.2116,VALID,0,VALID,22.2381,VALID,122,VALID,0,
2010-03-07, 03:15:04,VALID,1002.32,VALID,0,VALID,92.2345,VALID,0,VALID,22.2186,VALID,122,VALID,0,
2010-03-07, 03:16:04,VALID,1002.31,VALID,0,VALID,92.3108,VALID,0,VALID,22.1974,VALID,122,VALID,0,
2010-03-07, 03:17:04,VALID,1002.29,VALID,0,VALID,92.2726,VALID,0,VALID,22.199,VALID,122,VALID,0,
2010-03-07, 03:18:04,VALID,1002.28,VALID,0,VALID,92.2803,VALID,0,VALID,22.1795,VALID,122,VALID,0,
2010-03-07, 03:19:04,VALID,1002.31,VALID,0,VALID,92.2574,VALID,0,VALID,22.16,VALID,122,VALID,0,
2010-03-07, 03:20:04,VALID,1002.3,VALID,0,VALID,92.41,VALID,0,VALID,22.1405,VALID,122,VALID,0,
2010-03-07, 03:21:04,VALID,1002.32,VALID,0,VALID,92.738,VALID,0,VALID,22.199,VALID,121,VALID,0,
2010-03-07, 03:22:04,VALID,1002.34,VALID,0,VALID,92.8983,VALID,0,VALID,22.2576,VALID,121,VALID,0.44375,
2010-03-07, 03:23:04,VALID,1002.33,VALID,0,VALID,92.944,VALID,0,VALID,22.3356,VALID,121,VALID,0.34375,
2010-03-07, 03:24:04,VALID,1002.35,VALID,0,VALID,93.0661,VALID,0,VALID,22.4136,VALID,122,VALID,0,
2010-03-07, 03:25:04,VALID,1002.35,VALID,0,VALID,93.028,VALID,0,VALID,22.4526,VALID,122,VALID,0,
2010-03-07, 03:26:04,VALID,1002.35,VALID,0,VALID,92.738,VALID,0,VALID,22.4721,VALID,120,VALID,0,
2010-03-07, 03:27:04,VALID,1002.34,VALID,0,VALID,92.7151,VALID,0,VALID,22.4136,VALID,101,VALID,0,
2010-03-07, 03:28:04,VALID,1002.33,VALID,0,VALID,92.7228,VALID,0,VALID,22.3729,VALID,108,VALID,0.193359,
2010-03-07, 03:29:04,VALID,1002.35,VALID,0,VALID,92.7304,VALID,0,VALID,22.3746,VALID,112,VALID,0.492188,
2010-03-07, 03:30:04,VALID,1002.33,VALID,0,VALID,92.738,VALID,0,VALID,22.3746,VALID,112,VALID,0.503125,
2010-03-07, 03:31:04,VALID,1002.34,VALID,0,VALID,92.6388,VALID,0,VALID,22.3551,VALID,112,VALID,0.443359,
2010-03-07, 03:32:04,VALID,1002.34,VALID,0,VALID,92.5931,VALID,0,VALID,22.3161,VALID,112,VALID,0.0578125,
2010-03-07, 03:33:04,VALID,1002.37,VALID,0,VALID,92.4786,VALID,0,VALID,22.2576,VALID,112,VALID,0,
2010-03-07, 03:34:04,VALID,1002.35,VALID,0,VALID,92.4405,VALID,0,VALID,22.199,VALID,112,VALID,0,
2010-03-07, 03:35:04,VALID,1002.35,VALID,0,VALID,92.4863,VALID,0,VALID,22.1795,VALID,112,VALID,0,
2010-03-07, 03:36:04,VALID,1002.35,VALID,0,VALID,92.5931,VALID,0,VALID,22.1795,VALID,112,VALID,0.0367187,
2010-03-07, 03:37:04,VALID,1002.35,VALID,0,VALID,92.6312,VALID,0,VALID,22.1795,VALID,112,VALID,0,
2010-03-07, 03:38:04,VALID,1002.36,VALID,0,VALID,92.7228,VALID,0,VALID,22.1795,VALID,112,VALID,0.273047,
2010-03-07, 03:39:04,VALID,1002.36,VALID,0,VALID,92.7991,VALID,0,VALID,22.1795,VALID,107,VALID,0.612109,
2010-03-07, 03:40:04,VALID,1002.33,VALID,0,VALID,92.8601,VALID,0,VALID,22.2381,VALID,104,VALID,0.526953,
2010-03-07, 03:41:04,VALID,1002.33,VALID,0,VALID,92.8067,VALID,0,VALID,22.2381,VALID,103,VALID,0.446094,
2010-03-07, 03:42:04,VALID,1002.31,VALID,0,VALID,92.7533,VALID,0,VALID,22.2186,VALID,102,VALID,0.386719,
2010-03-07, 03:43:04,VALID,1002.31,VALID,0,VALID,92.7228,VALID,0,VALID,22.2186,VALID,102,VALID,0.472656,
2010-03-07, 03:44:04,VALID,1002.31,VALID,0,VALID,92.6846,VALID,0,VALID,22.199,VALID,102,VALID,0.365234,
2010-03-07, 03:45:04,VALID,1002.27,VALID,0,VALID,92.7609,VALID,0,VALID,22.2186,VALID,105,VALID,0.35,
2010-03-07, 03:46:04,VALID,1002.31,VALID,0,VALID,92.7457,VALID,0,VALID,22.1974,VALID,111,VALID,0.229297,
2010-03-07, 03:47:04,VALID,1002.28,VALID,0,VALID,92.6541,VALID,0,VALID,22.199,VALID,111,VALID,0.18125,
2010-03-07, 03:48:04,VALID,1002.29,VALID,0,VALID,92.7151,VALID,0,VALID,22.199,VALID,111,VALID,0,
2010-03-07, 03:49:04,VALID,1002.28,VALID,0,VALID,92.6465,VALID,0,VALID,22.199,VALID,111,VALID,0,
2010-03-07, 03:50:04,VALID,1002.26,VALID,0,VALID,92.6541,VALID,0,VALID,22.199,VALID,111,VALID,0,
2010-03-07, 03:51:04,VALID,1002.27,VALID,0,VALID,92.6694,VALID,0,VALID,22.1795,VALID,111,VALID,0,
2010-03-07, 03:52:04,VALID,1002.29,VALID,0,VALID,92.6007,VALID,0,VALID,22.1795,VALID,111,VALID,0,